SCOUT A R/B, 1865

Orbit data source: Space-Track

SCOUT A R/B, 1865 is space debris in LEO originally from a launch on Wed, 22 Dec 1965 UTC launched from the Air Force Western Test Range (AFWTR). Debris objects in space refer to the collection of defunct objects orbiting the Earth. Examples of debris include non-operational satellites, rocket bodies, and fragments generated from explosions, collisions, or faulty payload assembly.

Loading next visibility...
Identifier
1865, 1965-109B
Orbit
LEO
Country
Flag of USUS
Related business
Manufacturer
ABL
Mission
Spacecraft
Bus & Motor
ALTAIR, Unknown motor
Mass
33 kg wet, 33 kg dry
Launch date (UTC)
1965-12-22 (60 years ago)
Launch vehicle
Unknown
Launch site
Air Force Western Test Range (AFWTR)
Object type
Payload
Rocket body
Debris
Shape & HBR
Cyl, 0.8 m
Radar Cross Section
0.687 m², Medium (>0.1 m² and < 1m²)

Expand to show TLE details & history
Last TLE update: 9 hours ago

TLE from 9 hours ago
0 SCOUT A R/B
1 01865U 65109B   25242.89843990  .00000145  00000-0  12728-3 0  9999
2 01865  89.0601 277.7214 0112964 141.7169 219.2086 13.76748949993689
Epoch: 2025-08-30T21:33Z
TLE epoch observation values (Epoch: 2025-08-30T21:33:45.207Z)
Latitude
-0.00001°
Longitude
-25.04309°
Altitude
1,043.182 km
Speed
7.298 km/s
True Right ascension
18h 30m 53s
True Declination
0° 00' 00"
Sunlit
Object was in daylight at epoch
Visualization orbit readout
Latitude
Unknown
Longitude
Unknown
Altitude
Unknown
Speed
Unknown
Apparent Right ascension
Unknown
Apparent Declination
Unknown
Sunlit
N/A
Visualization observer readout
Local Sidereal Time
22:14:04
Azimuth
Unknown
Elevation
Unknown
Doppler factor
Unknown
Orbital elements
Apogee altitude
1,055.488 km
Perigee altitude
889.418 km
Semi-major axis
7,350.59 km
Eccentricity
0.0113
Inclination
89.0601°
RAAN
277.7214°
Arg. of periapsis
141.7169°
True anomaly
218.39919°
Mean anomaly
219.2086°
Eccentric anomaly
218.80301°
Mean motion
3.44397 °/min
Orbital period
104.53 mins
BSTAR
0.00012728
Loading maneuver chart data...
Computing Atmospheric mass density...
Loading historical data...
Loading historical data...
Loading historical data...
Loading historical data...
Loading historical data...
Loading historical data...
Loading historical data...

Documentation

Showing up to 5 results
|